WAT3957 EHAM-EGKK

Flight info

Callsign WAT3957
Flight time 0h 59m
Altitude 22000
Route IDRID L980 ABNED Z344 AMRIV Q63 ARREK Y4 TEBRA
Aircraft A320/M-SDE3FGHIRWY/LB1

Departure

Time 2026-05-04 20:01
Airport Amsterdam Airport Schiphol (EHAM)

Arrival

Time 2026-05-04 21:00
Airport London Gatwick Airport (EGKK)
Time Latitude Longitude Altitude Speed Heading
2026-05-04 20:01 52.33184 4.75373 4839 ft 170 kts 246°
2026-05-04 20:01 52.32697 4.73604 5696 ft 171 kts 247°
2026-05-04 20:01 52.32210 4.71816 6539 ft 172 kts 247°
2026-05-04 20:02 52.31700 4.69921 7076 ft 195 kts 247°
2026-05-04 20:02 52.31133 4.67799 7752 ft 210 kts 247°
2026-05-04 20:02 52.30534 4.65538 8531 ft 223 kts 247°
2026-05-04 20:02 52.29899 4.63136 9252 ft 239 kts 247°
2026-05-04 20:03 52.29216 4.60534 9927 ft 258 kts 247°
2026-05-04 20:03 52.28487 4.57744 10538 ft 276 kts 248°
2026-05-04 20:03 52.27726 4.54833 11302 ft 288 kts 248°
2026-05-04 20:03 52.26915 4.51728 11884 ft 310 kts 248°
2026-05-04 20:04 52.26035 4.48353 12277 ft 336 kts 248°
2026-05-04 20:04 52.25082 4.44707 12670 ft 360 kts 247°
2026-05-04 20:04 52.24066 4.40823 13074 ft 382 kts 248°
2026-05-04 20:04 52.22992 4.36729 13475 ft 402 kts 248°
2026-05-04 20:05 52.21865 4.32442 14005 ft 415 kts 248°
2026-05-04 20:05 52.20721 4.28120 14992 ft 416 kts 247°
2026-05-04 20:05 52.19564 4.23762 15829 ft 421 kts 247°
2026-05-04 20:05 52.18395 4.19358 16700 ft 426 kts 247°
2026-05-04 20:06 52.17214 4.14906 17539 ft 431 kts 247°
2026-05-04 20:06 52.16017 4.10406 18385 ft 435 kts 247°
2026-05-04 20:06 52.14811 4.05880 19268 ft 435 kts 247°
2026-05-04 20:06 52.13610 4.01384 20343 ft 432 kts 247°
2026-05-04 20:07 52.12415 3.96919 21398 ft 429 kts 247°
2026-05-04 20:07 52.11225 3.92482 22543 ft 425 kts 247°
2026-05-04 20:07 52.10048 3.88106 23624 ft 422 kts 247°
2026-05-04 20:07 52.08870 3.83732 24429 ft 422 kts 246°
2026-05-04 20:08 52.07695 3.79372 25130 ft 422 kts 246°
2026-05-04 20:08 52.06530 3.75056 25760 ft 422 kts 246°
2026-05-04 20:08 52.05347 3.70684 26344 ft 423 kts 245°
2026-05-04 20:08 52.04161 3.66307 26950 ft 422 kts 245°
2026-05-04 20:09 52.02980 3.61960 27562 ft 419 kts 245°
2026-05-04 20:09 52.01817 3.57680 28412 ft 411 kts 244°
2026-05-04 20:09 52.00671 3.53457 29030 ft 408 kts 244°
2026-05-04 20:09 51.99414 3.49354 29560 ft 404 kts 237°
2026-05-04 20:10 51.97838 3.45590 29978 ft 404 kts 232°
2026-05-04 20:10 51.96171 3.41918 30370 ft 404 kts 232°
2026-05-04 20:10 51.94503 3.38262 30871 ft 401 kts 231°
2026-05-04 20:10 51.92852 3.34639 31404 ft 398 kts 232°
2026-05-04 20:11 51.91768 3.32256 31730 ft 397 kts 232°
2026-05-04 20:11 51.90121 3.28635 31979 ft 402 kts 232°
2026-05-04 20:11 51.88442 3.24951 32027 ft 411 kts 232°
2026-05-04 20:12 51.84516 3.15924 32021 ft 434 kts 239°
2026-05-04 20:12 51.81745 3.07130 32027 ft 441 kts 241°
2026-05-04 20:13 51.79409 2.99728 32027 ft 442 kts 241°
2026-05-04 20:13 51.76730 2.90870 32030 ft 443 kts 243°
2026-05-04 20:14 51.74117 2.81864 32029 ft 443 kts 243°
2026-05-04 20:14 51.71492 2.72870 32029 ft 443 kts 243°
2026-05-04 20:15 51.68836 2.63905 32026 ft 443 kts 243°
2026-05-04 20:15 51.66167 2.54969 32023 ft 443 kts 243°
2026-05-04 20:16 51.63492 2.46023 32024 ft 443 kts 243°
2026-05-04 20:16 51.60813 2.37097 32032 ft 443 kts 243°
2026-05-04 20:17 51.58291 2.28054 32032 ft 443 kts 246°
2026-05-04 20:17 51.56046 2.18820 32029 ft 444 kts 248°
2026-05-04 20:18 51.53825 2.09567 32021 ft 444 kts 247°
2026-05-04 20:18 51.52683 2.04942 31767 ft 445 kts 246°
2026-05-04 20:18 51.51520 2.00342 31444 ft 443 kts 246°
2026-05-04 20:18 51.50349 1.95758 30627 ft 444 kts 246°
2026-05-04 20:19 51.49170 1.91155 29690 ft 447 kts 246°
2026-05-04 20:19 51.47985 1.86537 28667 ft 448 kts 246°
2026-05-04 20:19 51.46813 1.81958 27616 ft 451 kts 246°
2026-05-04 20:19 51.45619 1.77283 26495 ft 455 kts 247°
2026-05-04 20:20 51.44416 1.72583 25403 ft 457 kts 246°
2026-05-04 20:20 51.43205 1.67848 24395 ft 461 kts 247°
2026-05-04 20:20 51.41989 1.63092 23512 ft 461 kts 248°
2026-05-04 20:20 51.40776 1.58356 22409 ft 459 kts 247°
2026-05-04 20:21 51.39563 1.53642 21354 ft 456 kts 247°
2026-05-04 20:21 51.38356 1.48960 20334 ft 454 kts 247°
2026-05-04 20:21 51.35955 1.39708 18560 ft 446 kts 247°
2026-05-04 20:22 51.34767 1.35149 17638 ft 441 kts 247°
2026-05-04 20:22 51.33593 1.30636 16723 ft 437 kts 247°
2026-05-04 20:22 51.32431 1.26174 15877 ft 432 kts 247°
2026-05-04 20:22 51.31281 1.21783 15127 ft 426 kts 246°
2026-05-04 20:23 51.30138 1.17444 14393 ft 421 kts 246°
2026-05-04 20:23 51.29007 1.13147 13655 ft 418 kts 246°
2026-05-04 20:23 51.27883 1.08879 12865 ft 415 kts 247°
2026-05-04 20:23 51.26782 1.04696 12095 ft 411 kts 247°
2026-05-04 20:24 51.25674 1.00495 11405 ft 406 kts 247°
2026-05-04 20:24 51.24585 0.96376 10732 ft 400 kts 247°
2026-05-04 20:24 51.23512 0.92324 10213 ft 391 kts 247°
2026-05-04 20:24 51.22476 0.88422 10034 ft 373 kts 247°
2026-05-04 20:25 51.21494 0.84723 10030 ft 351 kts 246°
2026-05-04 20:25 51.20569 0.81243 10033 ft 332 kts 247°
2026-05-04 20:25 51.19688 0.77943 10032 ft 315 kts 246°
2026-05-04 20:25 51.18846 0.74801 10030 ft 300 kts 246°
2026-05-04 20:26 51.18052 0.71838 10025 ft 292 kts 246°
2026-05-04 20:26 51.17261 0.68884 9772 ft 288 kts 246°
2026-05-04 20:26 51.16476 0.65957 9433 ft 287 kts 247°
2026-05-04 20:26 51.15702 0.63070 9278 ft 279 kts 246°
2026-05-04 20:27 51.14959 0.60309 9136 ft 262 kts 246°
2026-05-04 20:27 51.14252 0.57690 8726 ft 257 kts 247°
2026-05-04 20:27 51.13544 0.55067 8572 ft 260 kts 247°
2026-05-04 20:27 51.12826 0.52408 8457 ft 262 kts 247°
2026-05-04 20:28 51.12106 0.49746 8317 ft 260 kts 247°
2026-05-04 20:28 51.11402 0.47145 8197 ft 252 kts 246°
2026-05-04 20:28 51.10719 0.44629 8066 ft 244 kts 246°
2026-05-04 20:28 51.10057 0.42189 7932 ft 238 kts 247°
2026-05-04 20:29 51.09422 0.39843 7781 ft 229 kts 247°
2026-05-04 20:29 51.08798 0.37541 7491 ft 226 kts 247°
2026-05-04 20:29 51.08172 0.35233 7191 ft 227 kts 247°
2026-05-04 20:29 51.07543 0.32918 6883 ft 229 kts 247°
2026-05-04 20:30 51.06914 0.30606 6681 ft 225 kts 247°
2026-05-04 20:30 51.06290 0.28315 6321 ft 229 kts 248°
2026-05-04 20:30 51.05656 0.25993 6062 ft 230 kts 247°
2026-05-04 20:30 51.05009 0.23624 5649 ft 236 kts 248°
2026-05-04 20:31 51.04350 0.21220 5308 ft 238 kts 248°
2026-05-04 20:31 51.03692 0.18815 5082 ft 233 kts 247°
2026-05-04 20:31 51.03042 0.16442 4711 ft 237 kts 248°
2026-05-04 20:31 51.02382 0.14026 4413 ft 245 kts 248°
2026-05-04 20:32 51.01904 0.11450 3992 ft 249 kts 262°
2026-05-04 20:32 51.01859 0.08584 3883 ft 264 kts 276°
2026-05-04 20:32 51.01994 0.05686 3821 ft 267 kts 275°
2026-05-04 20:32 51.02123 0.02728 3762 ft 269 kts 275°
2026-05-04 20:33 51.02249 -0.00233 3702 ft 268 kts 275°
2026-05-04 20:33 51.02373 -0.03175 3631 ft 264 kts 275°
2026-05-04 20:33 51.02492 -0.06035 3503 ft 255 kts 275°
2026-05-04 20:33 51.02606 -0.08802 3379 ft 247 kts 275°
2026-05-04 20:34 51.02718 -0.11471 3254 ft 238 kts 275°
2026-05-04 20:34 51.02827 -0.14042 3128 ft 229 kts 275°
2026-05-04 20:34 51.02929 -0.16517 3024 ft 220 kts 275°
2026-05-04 20:34 51.03031 -0.18927 3004 ft 218 kts 275°
2026-05-04 20:35 51.03131 -0.21306 3005 ft 209 kts 275°
2026-05-04 20:35 51.03223 -0.23553 3014 ft 201 kts 275°
2026-05-04 20:35 51.03311 -0.25728 3001 ft 192 kts 275°
2026-05-04 20:35 51.03394 -0.27798 3002 ft 188 kts 275°
2026-05-04 20:36 51.03476 -0.29867 3008 ft 187 kts 275°
2026-05-04 20:36 51.03557 -0.31922 3009 ft 186 kts 275°
2026-05-04 20:36 51.03640 -0.33970 3005 ft 186 kts 275°
2026-05-04 20:36 51.03722 -0.36025 3011 ft 186 kts 275°
2026-05-04 20:37 51.03802 -0.38070 3012 ft 185 kts 275°
2026-05-04 20:37 51.03884 -0.40113 3004 ft 186 kts 275°
2026-05-04 20:37 51.03966 -0.42144 3003 ft 180 kts 275°
2026-05-04 20:37 51.04044 -0.44115 2999 ft 177 kts 275°
2026-05-04 20:38 51.04118 -0.46066 3002 ft 176 kts 275°
2026-05-04 20:38 51.04317 -0.47945 2988 ft 174 kts 301°
2026-05-04 20:38 51.05101 -0.49327 2993 ft 167 kts 337°
2026-05-04 20:38 51.06202 -0.49497 3001 ft 160 kts 22°
2026-05-04 20:39 51.07166 -0.48552 3038 ft 172 kts 40°
2026-05-04 20:39 51.08117 -0.47318 3012 ft 178 kts 40°
2026-05-04 20:39 51.09075 -0.46072 2899 ft 176 kts 40°
2026-05-04 20:39 51.10025 -0.44833 2536 ft 178 kts 41°
2026-05-04 20:40 51.10985 -0.43562 2156 ft 180 kts 44°
2026-05-04 20:40 51.11622 -0.41906 2015 ft 178 kts 73°
2026-05-04 20:40 51.11900 -0.39974 2011 ft 179 kts 76°
2026-05-04 20:40 51.12170 -0.38037 2009 ft 180 kts 76°
2026-05-04 20:41 51.12442 -0.36093 2007 ft 180 kts 76°
2026-05-04 20:41 51.12713 -0.34149 1891 ft 179 kts 76°
2026-05-04 20:41 51.12972 -0.32208 1766 ft 181 kts 82°
2026-05-04 20:41 51.12685 -0.30249 2272 ft 188 kts 122°
2026-05-04 20:42 51.11655 -0.29004 2843 ft 196 kts 159°
2026-05-04 20:42 51.10284 -0.28946 2989 ft 202 kts 196°
2026-05-04 20:42 51.09145 -0.30219 3004 ft 203 kts 231°
2026-05-04 20:42 51.08373 -0.32104 3011 ft 203 kts 240°
2026-05-04 20:43 51.07648 -0.34029 3014 ft 203 kts 231°
2026-05-04 20:43 51.06507 -0.35256 3004 ft 200 kts 193°
2026-05-04 20:43 51.05268 -0.35650 3000 ft 193 kts 191°
2026-05-04 20:43 51.04137 -0.36579 2987 ft 182 kts 229°
2026-05-04 20:44 51.03539 -0.38317 3003 ft 179 kts 249°
2026-05-04 20:44 51.03175 -0.40195 3008 ft 177 kts 258°
2026-05-04 20:44 51.02933 -0.42114 3000 ft 177 kts 261°
2026-05-04 20:44 51.02716 -0.44041 3004 ft 177 kts 261°
2026-05-04 20:45 51.02500 -0.45972 3003 ft 178 kts 261°
2026-05-04 20:45 51.02288 -0.47901 2990 ft 177 kts 261°
2026-05-04 20:45 51.02078 -0.49823 2995 ft 177 kts 261°
2026-05-04 20:45 51.01867 -0.51749 2989 ft 177 kts 261°
2026-05-04 20:46 51.01565 -0.53727 3015 ft 200 kts 250°
2026-05-04 20:46 51.00683 -0.55496 2998 ft 216 kts 212°
2026-05-04 20:46 50.99230 -0.56198 2976 ft 222 kts 176°
2026-05-04 20:46 50.97787 -0.55482 2985 ft 218 kts 141°
2026-05-04 20:47 50.96877 -0.53638 2993 ft 213 kts 108°
2026-05-04 20:47 50.96693 -0.51311 3057 ft 225 kts 84°
2026-05-04 20:47 50.96824 -0.48798 3088 ft 229 kts 84°
2026-05-04 20:47 50.96974 -0.46256 3342 ft 233 kts 83°
2026-05-04 20:48 50.97128 -0.43677 3590 ft 235 kts 84°
2026-05-04 20:48 50.97279 -0.41087 3840 ft 237 kts 84°
2026-05-04 20:48 50.97428 -0.38481 3956 ft 238 kts 84°
2026-05-04 20:48 50.97576 -0.35864 3981 ft 238 kts 84°
2026-05-04 20:49 50.97723 -0.33253 3984 ft 237 kts 84°
2026-05-04 20:49 50.97867 -0.30679 3986 ft 237 kts 84°
2026-05-04 20:49 50.98009 -0.28075 3986 ft 237 kts 84°
2026-05-04 20:49 50.98423 -0.25562 3874 ft 237 kts 61°
2026-05-04 20:50 50.99488 -0.23630 3637 ft 234 kts 34°
2026-05-04 20:50 51.00984 -0.22690 3389 ft 233 kts
2026-05-04 20:50 51.02595 -0.22934 3133 ft 236 kts 341°
2026-05-04 20:50 51.03984 -0.24376 3008 ft 240 kts 313°
2026-05-04 20:51 51.04785 -0.26665 3011 ft 245 kts 285°
2026-05-04 20:51 51.04857 -0.29378 3011 ft 248 kts 264°
2026-05-04 20:51 51.04664 -0.32099 3011 ft 248 kts 264°
2026-05-04 20:51 51.04467 -0.34786 3005 ft 238 kts 264°
2026-05-04 20:52 51.04276 -0.37358 3005 ft 231 kts 264°
2026-05-04 20:52 51.04087 -0.39877 3008 ft 229 kts 264°
2026-05-04 20:52 51.03901 -0.42383 3009 ft 228 kts 264°
2026-05-04 20:52 51.03717 -0.44884 3007 ft 225 kts 264°
2026-05-04 20:53 51.03542 -0.47276 3001 ft 210 kts 264°
2026-05-04 20:53 51.03378 -0.49507 2993 ft 197 kts 264°
2026-05-04 20:53 51.03274 -0.51583 3020 ft 182 kts 275°
2026-05-04 20:53 51.03659 -0.53433 2998 ft 174 kts 307°
2026-05-04 20:54 51.04542 -0.54667 3006 ft 168 kts 337°
2026-05-04 20:54 51.05662 -0.55043 3011 ft 164 kts
2026-05-04 20:54 51.06793 -0.54477 3008 ft 183 kts 34°
2026-05-04 20:54 51.07667 -0.53004 3009 ft 188 kts 54°
2026-05-04 20:55 51.08442 -0.51314 3010 ft 190 kts 54°
2026-05-04 20:55 51.09225 -0.49618 3003 ft 190 kts 54°
2026-05-04 20:55 51.10007 -0.47925 3006 ft 190 kts 54°
2026-05-04 20:55 51.10774 -0.46258 3009 ft 178 kts 57°
2026-05-04 20:56 51.11265 -0.44565 3035 ft 166 kts 73°
2026-05-04 20:56 51.11510 -0.42798 2955 ft 161 kts 77°
2026-05-04 20:56 51.11748 -0.41066 2791 ft 158 kts 77°
2026-05-04 20:56 51.11985 -0.39367 2593 ft 157 kts 76°
2026-05-04 20:57 51.12220 -0.37681 2389 ft 156 kts 76°
2026-05-04 20:57 51.12448 -0.36045 2178 ft 143 kts 76°
2026-05-04 20:57 51.12659 -0.34539 1992 ft 136 kts 76°
2026-05-04 20:57 51.12859 -0.33102 1818 ft 134 kts 76°
2026-05-04 20:58 51.13061 -0.31660 1643 ft 133 kts 76°
2026-05-04 20:58 51.13260 -0.30229 1454 ft 132 kts 76°
2026-05-04 20:58 51.13459 -0.28796 1278 ft 133 kts 76°
2026-05-04 20:58 51.13658 -0.27370 1093 ft 132 kts 76°
2026-05-04 20:59 51.13857 -0.25936 911 ft 133 kts 76°
2026-05-04 20:59 51.14055 -0.24510 729 ft 132 kts 77°
2026-05-04 20:59 51.14255 -0.23073 568 ft 133 kts 76°
2026-05-04 20:59 51.14453 -0.21642 374 ft 133 kts 76°
2026-05-04 21:00 51.14650 -0.20209 217 ft 129 kts 76°
2026-05-04 21:00 51.14770 -0.19357 214 ft 107 kts 78°
2026-05-04 21:00 51.14886 -0.18619 210 ft 22 kts 48°
2026-05-04 21:00 51.14973 -0.18446 207 ft 20 kts 51°
2026-05-04 21:01 51.15064 -0.18266 209 ft 22 kts 51°
2026-05-04 21:01 51.15132 -0.18050 210 ft 22 kts 76°
2026-05-04 21:01 51.15167 -0.17796 211 ft 25 kts 77°
2026-05-04 21:01 51.15206 -0.17518 207 ft 23 kts 78°
2026-05-04 21:02 51.15257 -0.17334 210 ft 18 kts 30°
2026-05-04 21:02 51.15303 -0.17378 213 ft 6 kts 276°
2026-05-04 21:02 51.15323 -0.17472 216 ft 13 kts 327°
2026-05-04 21:02 51.15384 -0.17497 209 ft 0 kts 348°